Date,TemperatureHighF,TemperatureAvgF,TemperatureLowF,DewpointHighF,DewpointAvgF,DewpointLowF,HumidityHigh,HumidityAvg,HumidityLow,PressureMaxIn,PressureMinIn,WindSpeedMaxMPH,WindSpeedAvgMPH,GustSpeedMaxMPH,PrecipitationSumIn
2013-1-1,56.0,47.2,38.0,26.0,21.2,17.0,60,37,22,0.00,40.00,15,7,23,0.00
2013-1-2,60.0,51.5,44.0,18.0,15.3,13.0,32,24,16,0.00,40.00,17,12,28,0.00
2013-1-3,61.0,53.8,48.0,17.0,13.7,11.0,26,20,14,0.00,40.00,19,12,29,0.00
2013-1-4,62.0,51.3,41.0,20.0,16.0,12.0,36,25,16,0.00,40.00,11,6,17,0.00
2013-1-5,63.0,49.7,38.0,22.0,18.2,15.0,48,30,16,0.00,40.00,8,4,14,0.00
2013-1-6,69.0,51.7,41.0,33.0,24.9,18.0,50,36,15,0.00,40.00,13,4,24,0.00
2013-1-7,65.0,53.9,42.0,35.0,27.9,15.0,72,40,19,0.00,40.00,20,7,29,0.00
2013-1-8,71.0,61.4,50.0,30.0,22.0,15.0,37,22,14,0.00,40.00,15,7,26,0.00
2013-1-9,78.0,60.4,50.0,35.0,29.4,26.0,57,33,15,0.00,40.00,5,1,10,0.00
2013-1-10,66.0,54.3,48.0,40.0,30.7,23.0,56,41,27,0.00,40.00,24,9,41,0.00
2013-1-11,58.0,48.1,38.0,30.0,21.5,12.0,62,38,17,0.00,40.00,10,4,24,0.00
2013-1-12,56.0,45.8,37.0,23.0,16.5,8.0,56,33,19,0.00,40.00,14,5,21,0.00
2013-1-13,54.0,43.6,32.0,18.0,10.4,5.0,47,27,14,0.00,40.00,12,6,23,0.00
2013-1-14,48.0,42.5,37.0,10.0,3.1,-2.0,25,19,13,0.00,40.00,23,16,41,0.00
2013-1-15,51.0,44.1,37.0,21.0,6.9,2.0,45,22,15,0.00,40.00,21,12,32,0.00
2013-1-16,62.0,51.3,41.0,25.0,18.6,12.0,45,28,21,0.00,40.00,14,9,24,0.00
2013-1-17,69.0,57.4,47.0,23.0,20.2,18.0,38,24,16,0.00,40.00,18,11,29,0.00
2013-1-18,71.0,59.8,49.0,23.0,19.9,16.0,34,22,15,0.00,40.00,16,10,25,0.00
2013-1-19,70.0,61.3,52.0,23.0,19.6,16.0,26,20,14,0.00,40.00,15,10,25,0.00
2013-1-20,72.0,62.2,50.0,22.0,17.0,13.0,29,18,12,0.00,40.00,15,9,24,0.00
2013-1-21,74.0,62.9,50.0,19.0,13.3,9.0,26,15,9,0.00,40.00,16,10,28,0.00
2013-1-22,77.0,63.9,51.0,21.0,15.6,7.0,23,16,10,0.00,40.00,11,6,17,0.00
2013-1-23,78.0,64.8,52.0,32.0,22.9,18.0,31,21,12,0.00,40.00,9,4,13,0.00
2013-1-24,75.0,65.3,59.0,46.0,41.1,28.0,60,42,27,0.00,40.00,6,2,14,0.00
2013-1-25,71.0,62.6,57.0,59.0,50.1,44.0,100,65,43,0.00,40.00,12,6,18,0.68
2013-1-26,63.0,59.2,57.0,63.0,59.1,57.0,100,100,98,0.00,40.00,8,3,11,0.88
2013-1-27,70.0,61.0,53.0,63.0,54.3,33.0,100,81,45,0.00,40.00,11,3,20,0.01
2013-1-28,61.0,53.4,44.0,39.0,33.7,28.0,84,48,31,0.00,40.00,15,7,27,0.00
2013-1-29,65.0,53.6,38.0,42.0,35.5,29.0,99,55,28,0.00,40.00,8,2,14,0.00
2013-1-30,71.0,56.8,42.0,44.0,36.7,29.0,98,54,24,0.00,40.00,10,3,16,0.00
2013-1-31,71.0,60.2,46.0,43.0,38.0,33.0,82,47,26,0.00,40.00,12,6,23,0.00